Terminal Aerodrome Forecast
Issued by NWS Raleigh/Durham, NC

Home | Current Version | Previous Version | Text Only | Print | Product List | Glossary On
Versions: 1 2 3 4 5 6 7 8 9 10 11 12 13 14 15 16 17 18 19 20 21 22 23 24 25 26 27 28 29 30 31 32 33 34 35 36 37 38
000
FTUS42 KRAH 051459 AAA
TAFRDU
TAF AMD
KRDU 051459Z 0515/0612 VRB03KT P6SM BKN005 BKN250
      TEMPO 0515/0516 SCT005 SCT250
     FM051600 35005KT P6SM SCT250
     FM060300 07004KT P6SM -RA BKN040 BKN120
     FM060700 06005KT 5SM -RA BR BKN008 OVC025=

USA.gov is the U.S. government's official web portal to all federal, state and local government web resources and services.